CZ-4C DEB

Satellite information

Favourite Embed

Satellite Type and Status

DEBRISIN ORBIT

Key statistics

Satellite CZ-4C DEB at a glance.

Uptime

4406

Days in orbit

Revolutions

≈ 14.3

Per day

Orbit

SSO

Sun Synchronous Orbit

Inclination

100.5

Latest

Satellite identification and parameters

Extended collection of information and parameters for CZ-4C DEB.

Object identification

Identified? True

Debris? True

Object name: CZ-4C DEB

International designator: 2013-065D

Object number (NORAD): 43627

Object ID (CCSDS): 43627

Country: PEOPLES REPUBLIC OF CHINA (PRC)

Current information (Y/N): Y

RCS size: SMALL

Orbital parameters

Period: 100.92 minutes

Inclination: 100.5475 deg

SMA: 7180.32 km

Apoapsis: 892.747 km

Periapsis: 711.623 km

RAAN: 179.0509 deg

Eccentricy: 0.01261256

Argument of periapsis: 203.5889 deg

Mean anomaly: 155.947 deg

Mean motion: 14.26878758 rev/day

Mean motion (dot): 0.0004338 rev/day2

B* drag term: 0.016345631 1/REarth

Two-line elements (TLE)

Creation date: Dec. 11, 2025, 7:14 p.m.

Reference frame: TEME

Reference center: EARTH

Epoch: Dec. 11, 2025, 8:01 a.m. UTC

TLE line 0: 0 CZ-4C DEB

TLE line 1: 1 43627U 13065D 25345.33436042 .00043380 00000-0 16346-1 0 9990

TLE line 2: 2 43627 100.5475 179.0509 0126126 203.5889 155.9470 14.26878758370973

Live tracking on map

Real-time ground track for satellite CZ-4C DEB.

In-orbit conjunctions

A list of the most updated potential collisions computed for object CZ-4C DEB.

Target Orbit TCA Probability of collision Miss distance Type
RESURS O1-N4 SSO 2025-08-23 06:14:05 0.0006842179 427.0 (m) PAYLOAD
SCOUT A DEB SSO 2024-12-27 15:02:09 0.0001644696 96.0 (m) DEBRIS
COSMOS 1655 LEO 2024-09-27 21:00:41 0.0001758374 80.0 (m) PAYLOAD
LANDSAT 3 SSO 2024-08-25 05:55:22 0.0003150224 213.0 (m) PAYLOAD

Associated space launch

CZ-4C DEB was lifted into orbit during the mission ‘Long March 4C | Yaogan 19’, on board a Long March 4C space rocket.

The launch took place on Nov. 20, 2013, 3:31 a.m. from Launch Complex 9.

For more information about the launch, click the button.

Launch to space Long March 4C | Yaogan 19
Long March 4C | Yaogan 19

Agency: N/A

Status: Launch Successful

Launch date: Nov. 20, 2013, 3:31 a.m. UTC

Rocket: Long March 4C

Launch pad: Launch Complex 9

Location: Taiyuan Satellite Launch Center, People's Republic of China

...

Latest news about this satellite

There are no fresh news available about this satellite. Check back as we update our databases every day.


Newsletter sign-up

Weekly statistics, charts and insights to help you stay on top of the space industry.